This is the latest recevied weather packets stored in our database for station/object F4GCF-13. If no packets are shown the sender has not sent any weather packets the latest 1 day(s).
| Time | Temp. | Humidity | Pressure | Rain* | Wind** | Luminosity | Snow |
|---|---|---|---|---|---|---|---|
| 1778005662 | 14.44° C | 67% | 1014 hPa | 0 mm | 1.34 m/s, 282° | - | - |
| 1778004459 | 14.44° C | 65% | 1014 hPa | 0 mm | 1.79 m/s, 317° | - | - |
| 1778003558 | 14.44° C | 64% | 1014 hPa | 0 mm | 1.79 m/s, 249° | - | - |
| 1778003258 | 14.44° C | 64% | 1014 hPa | 0 mm | 2.68 m/s, 258° | - | - |
| 1778002958 | 15° C | 64% | 1014 hPa | 0 mm | 2.68 m/s, 248° | - | - |
| 1778002659 | 15° C | 62% | 1014 hPa | 0 mm | 3.58 m/s, 262° | - | - |
| 1778002357 | 15° C | 62% | 1014 hPa | 0 mm | 2.68 m/s, 261° | - | - |
| 1778002060 | 15.56° C | 61% | 1014 hPa | 0 mm | 1.34 m/s, 256° | - | - |
| 1778001793 | 15.56° C | 61% | 1014 hPa | 0 mm | 1.79 m/s, 253° | - | - |
| 1778001760 | 15.56° C | 61% | 1014 hPa | 0 mm | 1.79 m/s, 253° | - | - |
| 1778001459 | 15.56° C | 60% | 1014 hPa | 0 mm | 2.24 m/s, 266° | - | - |
| 1778000858 | 16.11° C | 59% | 1014 hPa | 0 mm | 1.79 m/s, 260° | - | - |
| 1778000559 | 16.11° C | 58% | 1014 hPa | 0 mm | 1.79 m/s, 253° | - | - |
| 1778000258 | 16.11° C | 58% | 1014 hPa | 0 mm | 2.24 m/s, 252° | - | - |
| 1777999959 | 16.11° C | 58% | 1014 hPa | 0 mm | 2.68 m/s, 260° | - | - |
| 1777999658 | 16.11° C | 57% | 1014 hPa | 0 mm | 3.13 m/s, 266° | - | - |
| 1777999359 | 16.67° C | 57% | 1014 hPa | 0 mm | 2.68 m/s, 248° | - | - |
| 1777999058 | 17.22° C | 59% | 1014 hPa | 0 mm | 2.68 m/s, 273° | - | - |
| 1777998758 | 17.22° C | 60% | 1014 hPa | 0 mm | 2.24 m/s, 296° | - | - |
| 1777998458 | 17.22° C | 61% | 1014 hPa | 0 mm | 2.68 m/s, 248° | - | - |
| 1777998158 | 16.67° C | 62% | 1014 hPa | 0 mm | 2.24 m/s, 329° | - | - |
| 1777997857 | 16.11° C | 63% | 1014 hPa | 0 mm | 1.79 m/s, 309° | - | - |
| 1777997558 | 15.56° C | 63% | 1014 hPa | 0 mm | 2.24 m/s, 270° | - | - |
| 1777997259 | 15.56° C | 62% | 1014 hPa | 0 mm | 2.24 m/s, 258° | - | - |
| 1777996959 | 16.11° C | 62% | 1014 hPa | 0 mm | 2.24 m/s, 277° | - | - |
* Rain latest hour (hover to see other rain measurements)
** Current wind speed in m/s (hover to see current wind gust speed)